This is the latest recevied weather packets stored in our database for station/object SQ9MHX-13. If no packets are shown the sender has not sent any weather packets the latest 10 day(s).
| Time | Temp. | Humidity | Pressure | Rain* | Wind** | Luminosity | Snow |
|---|---|---|---|---|---|---|---|
| 1777976269 | 23.89° C | 24% | 944.4 hPa | - | 0 m/s | - | - |
| 1777975671 | 25° C | 25% | 943.8 hPa | - | 0 m/s | - | - |
| 1777975482 | 25° C | 24% | 943.1 hPa | - | 0 m/s | - | - |
| 1777975371 | 25° C | 24% | 943.4 hPa | - | 0 m/s | - | - |
| 1777975072 | 25° C | 24% | 943.1 hPa | - | 0 m/s | - | - |
| 1777974773 | 25° C | 24% | 943.8 hPa | - | 0 m/s | - | - |
| 1777974473 | 23.89° C | 25% | 944.5 hPa | - | 0 m/s | - | - |
| 1777973576 | 25° C | 22% | 943.1 hPa | - | 0 m/s | - | - |
| 1777972977 | 25° C | 21% | 943.2 hPa | - | 0 m/s | - | - |
| 1777972378 | 26.11° C | 25% | 943.3 hPa | - | 0 m/s | - | - |
| 1777972079 | 25° C | 21% | 944.1 hPa | - | 0 m/s | - | - |
| 1777970881 | 23.89° C | 25% | 943.3 hPa | - | 0 m/s | - | - |
| 1777970283 | 23.89° C | 30% | 945 hPa | - | 0 m/s | - | - |
| 1777969983 | 23.89° C | 30% | 945.5 hPa | - | 0 m/s | - | - |
| 1777969684 | 22.78° C | 29% | 946 hPa | - | 0 m/s | - | - |
| 1777969385 | 22.78° C | 28% | 946.4 hPa | - | 0 m/s | - | - |
| 1777969086 | 22.78° C | 31% | 946.4 hPa | - | 0 m/s | - | - |
| 1777968786 | 23.89° C | 30% | 946.6 hPa | - | 0 m/s | - | - |
| 1777968487 | 22.78° C | 35% | 947.5 hPa | - | 0 m/s | - | - |
| 1777968188 | 22.78° C | 34% | 947.7 hPa | - | 0 m/s | - | - |
| 1777966991 | 22.22° C | 35% | 947.9 hPa | - | 0 m/s | - | - |
| 1777966692 | 22.22° C | 34% | 947.6 hPa | - | 0 m/s | - | - |
| 1777966094 | 22.22° C | 34% | 949.4 hPa | - | 0 m/s | - | - |
| 1777965794 | 21.11° C | 36% | 950.1 hPa | - | 0 m/s | - | - |
| 1777965496 | 21.11° C | 37% | 951.1 hPa | - | 0 m/s | - | - |
* Rain since midnight (hover to see other rain measurements)
** Current wind speed in m/s (hover to see current wind gust speed)